Weather History for KHSI - February, 2014

Change the Weather History Date:

Friday, February 14, 2014

  Actual Average Record
Temperature  
Mean Temperature 34 °F 30 °F  
Max Temperature 42 °F 40 °F 75 °F (1967)
Min Temperature 25 °F 19 °F -17 °F (1936)
Degree Days  
Heating Degree Days 31 35  
Month to date heating degree days 693 515  
Since 1 July heating degree days 4415 4164  
Cooling Degree Days 0 0  
Month to date cooling degree days 0 0  
Year to date cooling degree days 0 0  
Moisture  
Dew Point 24 °F    
Average Humidity 73    
Maximum Humidity 92    
Minimum Humidity 54    
Precipitation  
Precipitation 0.00 in 0.01 in 0.65 in (1969)
Month to date precipitation 0.19 0.23  
Year to date precipitation 0.56 0.64  
Snow  
Snow 0.00 in 0.30 in 5.00 in (1969)
Month to date snowfall 5.3 3.6  
Since 1 July snowfall 16.1 19.5  
Snow Depth -    
Sea Level Pressure  
Sea Level Pressure 29.95 in    
Wind  
Wind Speed 12 mph (North)    
Max Wind Speed 25 mph    
Max Gust Speed 29 mph    
Visibility 10 miles    
Events      
T = Trace of Precipitation, MM = Missing Value Source: NWS Daily Summary

Daily Weather History Graph

Daily Weather History Graph

Search for Another Location

Airport or City:

Trip Planner

Search our weather history database for the weather conditions in past years. The results will help you decide how hot, cold, wet, or windy it might be!

Date:

Astronomy

Feb. 14, 2014 Rise Set
Actual Time 7:28 AM CST 6:07 PM CST
Civil Twilight 7:00 AM CST 6:35 PM CST
Nautical Twilight 6:28 AM CST 7:07 PM CST
Astronomical Twilight 5:56 AM CST 7:39 PM CST
Moon 6:13 PM CST (2/14) 6:56 AM CST (2/14)
Length of Visible Light 11h 35m
Length of Day
10h 38m
Full, 100% of the Moon is Illuminated
Feb 14
Full
Feb 14
Full
Feb 22
Last Quarter
Mar 1
New
Mar 8
First Quarter

Hourly Weather History & Observations

Time (CST) Temp. Windchill Dew Point Humidity Pressure Visibility Wind Dir Wind Speed Gust Speed Precip Events Conditions
12:53 AM 42.1 °F 33.3 °F 33.1 °F 70% 29.62 in 10.0 mi NW 19.6 mph - N/A   Clear
1:53 AM 37.0 °F 27.0 °F 30.9 °F 79% 29.65 in 10.0 mi North 18.4 mph 28.8 mph N/A   Partly Cloudy
2:53 AM 33.1 °F 23.4 °F 28.0 °F 82% 29.70 in 10.0 mi NW 13.8 mph - N/A   Scattered Clouds
3:53 AM 32.0 °F 22.1 °F 27.0 °F 82% 29.72 in 10.0 mi North 13.8 mph - N/A   Clear
4:53 AM 30.0 °F 20.5 °F 26.1 °F 85% 29.77 in 10.0 mi NNW 11.5 mph - N/A   Clear
5:53 AM 30.0 °F 22.4 °F 26.1 °F 85% 29.80 in 10.0 mi NNW 8.1 mph - N/A   Clear
6:53 AM 27.0 °F 20.5 °F 24.1 °F 89% 29.83 in 10.0 mi NW 5.8 mph - N/A   Clear
7:53 AM 28.0 °F 21.7 °F 24.1 °F 85% 29.87 in 10.0 mi NNW 5.8 mph - N/A   Clear
8:53 AM 28.9 °F 19.8 °F 24.1 °F 82% 29.94 in 10.0 mi NNE 10.4 mph - N/A   Clear
9:53 AM 32.0 °F 21.2 °F 25.0 °F 75% 29.99 in 10.0 mi North 16.1 mph - N/A   Mostly Cloudy
10:53 AM 33.1 °F 22.6 °F 24.1 °F 70% 30.02 in 10.0 mi NNE 16.1 mph 23.0 mph N/A   Overcast
11:35 AM 32.0 °F 20.5 °F 23.0 °F 69% 30.00 in 10.0 mi North 18.4 mph - N/A   Mostly Cloudy
11:53 AM 30.9 °F 19.4 °F 21.9 °F 69% 30.06 in 10.0 mi North 17.3 mph - N/A   Overcast
12:45 PM 33.1 °F 21.9 °F 21.9 °F 64% 30.00 in 10.0 mi North 18.4 mph - N/A   Partly Cloudy
12:53 PM 33.1 °F 22.2 °F 21.9 °F 64% 30.04 in 10.0 mi North 17.3 mph - N/A   Partly Cloudy
1:53 PM 35.1 °F 24.5 °F 23.0 °F 61% 30.05 in 10.0 mi North 18.4 mph 24.2 mph N/A   Clear
2:53 PM 36.0 °F 26.0 °F 23.0 °F 59% 30.06 in 10.0 mi North 17.3 mph - N/A   Clear
3:53 PM 37.0 °F 28.1 °F 23.0 °F 57% 30.06 in 10.0 mi North 15.0 mph - N/A   Clear
4:53 PM 36.0 °F 27.1 °F 23.0 °F 59% 30.07 in 10.0 mi NNE 13.8 mph - N/A   Clear
5:53 PM 32.0 °F 24.8 °F 21.9 °F 66% 30.08 in 10.0 mi NNE 8.1 mph - N/A   Clear
6:53 PM 30.0 °F 24.1 °F 21.0 °F 69% 30.07 in 10.0 mi East 5.8 mph - N/A   Clear
7:53 PM 28.0 °F 20.8 °F 21.0 °F 75% 30.08 in 10.0 mi SE 6.9 mph - N/A   Clear
8:53 PM 27.0 °F 21.6 °F 19.9 °F 75% 30.08 in 10.0 mi ESE 4.6 mph - N/A   Clear
9:53 PM 26.1 °F 20.5 °F 19.9 °F 78% 30.07 in 10.0 mi South 4.6 mph - N/A   Clear
10:53 PM 26.1 °F 17.6 °F 21.0 °F 81% 30.06 in 10.0 mi South 8.1 mph - N/A   Clear
11:53 PM 26.1 °F 18.4 °F 21.0 °F 81% 30.03 in 10.0 mi South 6.9 mph - N/A   Scattered Clouds